GW3653 Weather Reports


time (UTC)temp
C
wind
direction
speed
KPH
gust
KPH
rain 1hr
cm
rain 24hr
cm
rain mn
cm
humidity
%
barometer
mb
20260510044538 21 0.0 3.2 0.00 0.03 0.03 61 1026.0
20260510043518 21 90 1.6 9.7 0.00 0.03 0.03 61 1026.3
20260510042538 20 248 1.6 4.8 0.00 0.03 0.03 62 1026.4
20260510041638 20 0.0 4.8 0.00 0.03 0.03 62 1026.5
20260510040518 20 0.0 6.4 0.00 0.03 0.03 63 1026.8
20260510035517 20 225 1.6 8.0 0.00 0.03 0.03 63 1026.9
20260510034518 19 248 1.6 6.4 0.00 0.03 0.03 63 1027.2
20260510033518 19 135 1.6 6.4 0.00 0.03 0.03 65 1027.3
20260510032517 18 45 1.6 6.4 0.00 0.03 0.03 65 1027.4
20260510031518 18 45 1.6 4.8 0.00 0.03 0.03 66 1027.6
20260510030557 18 0.0 3.2 0.00 0.03 0.03 69 1027.7
20260510025517 18 0.0 3.2 0.00 0.03 0.03 70 1027.7
20260510024517 17 113 1.6 4.8 0.00 0.03 0.03 70 1027.8
20260510023537 17 90 1.6 6.4 0.00 0.03 0.03 71 1028.0
20260510022517 17 0.0 3.2 0.00 0.03 0.03 73 1028.1
20260510021557 16 0.0 4.8 0.00 0.03 0.03 75 1028.2
20260510020517 16 0.0 3.2 0.00 0.03 0.03 75 1028.1
20260510015517 15 0.0 6.4 0.00 0.03 0.03 77 1028.2
20260510014537 15 0.0 3.2 0.00 0.03 0.03 78 1028.2
20260510013517 14 0.0 3.2 0.00 0.03 0.03 79 1028.4
20260510012517 13 0.0 1.6 0.00 0.03 0.03 80 1028.5
20260510011517 13 0.0 4.8 0.00 0.03 0.03 80 1028.5
20260510010517 13 0.0 1.6 0.00 0.03 0.03 81 1028.6
20260510005537 12 0.0 1.6 0.00 0.03 0.03 82 1028.6
20260510004539 12 0.0 1.6 0.00 0.03 0.03 83 1028.7
20260510003519 11 0.0 1.6 0.00 0.03 0.03 87 1028.6
20260510002519 11 0.0 1.6 0.00 0.03 0.03 90 1028.8
20260510001519 10 0.0 1.6 0.00 0.03 0.03 93 1028.8
20260510000519 8 0.0 1.6 0.00 0.03 0.03 93 1028.7
20260509235519 8 0.0 0.0 0.00 0.03 0.03 92 1028.7
20260509234518 7 0.0 0.0 0.00 0.03 0.03 91 1028.8
20260509233519 7 0.0 0.0 0.00 0.03 0.03 91 1028.7
20260509232519 7 0.0 0.0 0.00 0.03 0.03 92 1028.5
20260509231519 7 0.0 0.0 0.00 0.03 0.03 91 1028.6
20260509230519 7 0.0 0.0 0.00 0.03 0.03 91 1028.4
20260509225518 7 0.0 0.0 0.00 0.03 0.03 90 1028.4
20260509224519 7 0.0 0.0 0.00 0.03 0.03 90 1028.3
20260509223539 7 0.0 0.0 0.00 0.03 0.03 90 1028.3
20260509222539 8 0.0 0.0 0.00 0.03 0.03 90 1028.2
20260509221519 8 0.0 0.0 0.00 0.03 0.03 90 1028.2
20260509220519 8 0.0 0.0 0.00 0.03 0.03 90 1028.2
20260509215518 8 0.0 0.0 0.00 0.03 0.03 90 1028.0
20260509214519 8 0.0 0.0 0.00 0.03 0.03 90 1028.0
20260509213519 8 0.0 0.0 0.00 0.03 0.03 91 1028.0
20260509212519 8 0.0 0.0 0.00 0.03 0.03 91 1027.9
20260509211519 8 0.0 0.0 0.00 0.03 0.03 91 1027.8
20260509210519 9 0.0 0.0 0.00 0.03 0.03 90 1027.8
20260509205518 9 0.0 0.0 0.00 0.03 0.03 90 1027.8
20260509204518 9 0.0 0.0 0.00 0.03 0.03 91 1027.8
20260509203518 9 0.0 0.0 0.00 0.03 0.03 91 1027.7
20260509202518 9 0.0 0.0 0.00 0.03 0.03 91 1027.7
20260509201538 9 0.0 0.0 0.00 0.03 0.03 91 1027.7
20260509200518 9 0.0 0.0 0.00 0.03 0.03 91 1027.6
20260509195518 9 0.0 0.0 0.00 0.03 0.03 91 1027.6
20260509194518 9 0.0 0.0 0.00 0.03 0.03 91 1027.6
20260509193518 10 0.0 0.0 0.00 0.03 0.03 91 1027.6
20260509192519 10 0.0 0.0 0.00 0.03 0.03 91 1027.7
20260509191519 9 0.0 0.0 0.03 0.03 0.03 91 1027.7
20260509190518 9 0.0 0.0 0.03 0.03 0.03 91 1027.7
20260509185519 9 0.0 0.0 0.03 0.03 0.03 90 1027.7
20260509184518 10 0.0 0.0 0.03 0.03 0.03 90 1027.7
20260509183518 10 0.0 0.0 0.03 0.03 0.03 91 1027.6
20260509182518 10 0.0 0.0 0.03 0.03 0.03 90 1027.7
20260509181518 10 0.0 0.0 0.00 0.00 0.00 89 1027.9
20260509180518 10 0.0 0.0 0.00 0.00 0.00 89 1027.8
20260509175518 10 0.0 0.0 0.00 0.00 0.00 89 1027.8
20260509174519 10 0.0 0.0 0.00 0.00 0.00 89 1027.8
20260509173518 11 0.0 1.6 0.00 0.00 0.00 89 1028.0
20260509172518 11 0.0 0.0 0.00 0.00 0.00 90 1027.9
20260509171518 11 0.0 0.0 0.00 0.00 0.00 90 1027.8
20260509170518 11 0.0 4.8 0.00 0.00 0.00 90 1027.9
20260509165518 11 0.0 1.6 0.00 0.00 0.00 90 1028.0
20260509164518 11 0.0 1.6 0.00 0.00 0.00 90 1028.1
20260509163518 11 0.0 0.0 0.00 0.00 0.00 90 1028.2
20260509162518 11 0.0 0.0 0.00 0.00 0.00 90 1028.4
20260509161518 11 0.0 0.0 0.00 0.00 0.00 90 1028.4
20260509160518 11 0.0 0.0 0.00 0.00 0.00 89 1028.4
20260509155518 11 0.0 1.6 0.00 0.00 0.00 90 1028.4
20260509154518 11 0.0 0.0 0.00 0.00 0.00 89 1028.5
20260509153518 11 0.0 0.0 0.00 0.00 0.00 89 1028.5
20260509152518 11 0.0 0.0 0.00 0.00 0.00 89 1028.6
20260509151518 12 0.0 0.0 0.00 0.00 0.00 89 1028.7
20260509150518 12 0.0 0.0 0.00 0.00 0.00 89 1028.8
20260509145518 12 0.0 0.0 0.00 0.00 0.00 89 1028.8
20260509144519 12 0.0 0.0 0.00 0.00 0.00 89 1028.8
20260509143518 12 0.0 1.6 0.00 0.00 0.00 89 1028.9
20260509142519 12 0.0 0.0 0.00 0.00 0.00 88 1028.8
20260509141539 12 0.0 0.0 0.00 0.00 0.00 88 1028.8
20260509140518 12 0.0 1.6 0.00 0.00 0.00 88 1028.9
20260509135518 12 0.0 0.0 0.00 0.00 0.00 87 1028.9
20260509134518 12 0.0 1.6 0.00 0.00 0.00 87 1028.9
20260509133518 12 0.0 0.0 0.00 0.00 0.00 86 1028.8
20260509132518 12 0.0 1.6 0.00 0.00 0.00 86 1028.8
20260509131518 12 0.0 0.0 0.00 0.00 0.00 85 1028.8
20260509130538 12 0.0 0.0 0.00 0.00 0.00 85 1028.8
20260509125518 12 0.0 1.6 0.00 0.00 0.00 85 1028.7
20260509124518 12 0.0 1.6 0.00 0.00 0.00 85 1028.6
20260509123538 12 0.0 1.6 0.00 0.00 0.00 85 1028.7
20260509122518 12 0.0 1.6 0.00 0.00 0.00 85 1028.6
20260509121518 13 0.0 1.6 0.00 0.00 0.00 85 1028.7
20260509120518 13 0.0 1.6 0.00 0.00 0.00 84 1028.7
20260509115518 13 0.0 1.6 0.00 0.00 0.00 85 1028.7
20260509114518 13 0.0 1.6 0.00 0.00 0.00 85 1028.6
20260509113518 13 0.0 1.6 0.00 0.00 0.00 85 1028.6
20260509112538 13 0.0 1.6 0.00 0.00 0.00 85 1028.6
20260509111538 13 0.0 0.0 0.00 0.00 0.00 84 1028.5
20260509110518 13 0.0 1.6 0.00 0.00 0.00 84 1028.5
20260509105518 13 0.0 1.6 0.00 0.00 0.00 83 1028.5
20260509104518 14 0.0 1.6 0.00 0.00 0.00 83 1028.4
20260509103518 14 0.0 3.2 0.00 0.00 0.00 82 1028.3
20260509102518 14 0.0 3.2 0.00 0.00 0.00 82 1028.3
20260509101518 15 0.0 4.8 0.00 0.00 0.00 81 1028.2
20260509100518 15 68 1.6 4.8 0.00 0.00 0.00 81 1028.1
20260509095518 15 0.0 8.0 0.00 0.00 0.00 80 1028.0
20260509094558 15 90 1.6 11.3 0.00 0.00 0.00 79 1028.0
20260509093518 15 0.0 4.8 0.00 0.00 0.00 79 1027.9
20260509092518 15 0.0 3.2 0.00 0.00 0.00 78 1027.8
20260509091518 16 0.0 3.2 0.00 0.00 0.00 77 1027.8
20260509090518 16 90 1.6 8.0 0.00 0.00 0.00 76 1027.7
20260509085518 17 90 1.6 6.4 0.00 0.00 0.00 75 1027.6
20260509084518 17 113 1.6 6.4 0.00 0.00 0.00 74 1027.5
20260509083518 17 113 3.2 14.5 0.00 0.00 0.00 72 1027.3
20260509082538 18 90 1.6 9.7 0.00 0.00 0.00 71 1027.4
20260509081518 18 113 1.6 4.8 0.00 0.00 0.00 70 1027.5
20260509080518 19 113 1.6 8.0 0.00 0.00 0.00 66 1027.6
20260509075517 19 113 1.6 3.2 0.00 0.00 0.00 62 1027.6
20260509074517 20 0.0 4.8 0.00 0.00 0.00 59 1027.6
20260509073518 20 0.0 4.8 0.00 0.00 0.00 63 1027.6
20260509072558 20 90 1.6 4.8 0.00 0.00 0.00 62 1027.5
20260509071517 20 0.0 1.6 0.00 0.00 0.00 57 1027.5
20260509070518 20 0.0 3.2 0.00 0.00 0.00 55 1027.5
20260509065517 20 0.0 4.8 0.00 0.00 0.00 57 1027.5
20260509064518 20 0.0 1.6 0.00 0.00 0.00 57 1027.6
20260509063537 20 0.0 1.6 0.00 0.00 0.00 59 1027.6
20260509062517 20 113 1.6 3.2 0.00 0.00 0.00 57 1027.7
20260509061518 20 0.0 1.6 0.00 0.00 0.00 58 1027.8
20260509060517 20 0.0 1.6 0.00 0.00 0.00 58 1027.9
20260509055517 20 90 1.6 4.8 0.00 0.00 0.00 57 1028.1
20260509054517 20 0.0 6.4 0.00 0.00 0.00 57 1028.3
20260509053517 20 0.0 3.2 0.00 0.00 0.00 58 1028.3
20260509052517 20 0.0 3.2 0.00 0.00 0.00 60 1028.4
20260509051518 20 90 1.6 6.4 0.00 0.00 0.00 58 1028.5
20260509050539 19 135 1.6 6.4 0.00 0.00 0.00 57 1028.6
20260509045519 19 113 1.6 9.7 0.00 0.00 0.00 58 1028.9